Location: S�tio Afonso Gruber
(26.1760°S, 49.5250°W)
Time: 21:44:32
(UTC+00:00)

Cosmos 2016 Rocket - Pass Details

Date: 07 October 2020
Orbit: 946 x 1001 km, 83.0° (Epoch: 27 October)

Event Time Altitude Azimuth Distance (km) Brightness Sun altitude
Exits shadow 07:55:04 10° 318° (NW) 2,681 5.8 -13.1°
Maximum altitude 08:00:19 30° 260° (W) 1,694 4.8 -12.0°
Drops below altitude 10° 08:05:47 10° 200° (SSW) 2,770 6.3 -10.8°
Sets 08:08:42 0° 189° (S) 3,732 7.1 -10.2°
